Location: Newark
(58.8333°N, 23.5833°E)
Time: 23:50:03
(UTC+00:00)

Tiros 1 despin weight - Pass Details

Date: 21 November 2019
Orbit: 594 x 642 km, 48.2° (Epoch: 12 December)

Event Time Altitude Azimuth Distance (km) Brightness Sun altitude
Rises 13:09:58 0° 239° (WSW) 2,829 ? 3.1°
Reaches altitude 10° 13:12:40 10° 223° (SW) 1,931 ? 2.9°
Maximum altitude 13:15:57 21° 175° (S) 1,376 ? 2.6°
Drops below altitude 10° 13:19:16 10° 127° (SE) 1,946 ? 2.3°
Sets 13:22:01 0° 111° (ESE) 2,858 ? 2.1°
